COSMOS 2251 DEB, 37132

Orbit data source: Space-Track

COSMOS 2251 DEB, 37132 is space debris in LEO originally from a launch on Wed, 16 Jun 1993 UTC launched from the Plesetsk Missile And Space Complex (PKMTR). The debris from Iridium 33, an American commercial communications satellite, has been tracked extensively since its accidental collision with the defunct Russian satellite Cosmos 2251 in 2009. This event, occurring at high speed in low Earth orbit (LEO), generated thousands of pieces of space debris, significantly increasing the risk of further collisions. The Iridium 33 debris cloud has impacted space traffic management and orbital debris mitigation strategies, making it a subject of ongoing study in space situational awareness.

Loading next visibility...
Identifier
37132, 1993-036BHE
Orbit
LEO
Country
Flag of CISCIS
Related business
Manufacturer
Unknown
Mission
Spacecraft
Bus & Motor
Unknown
Mass
Unknown
Launch date (UTC)
1993-06-16 (33 years ago)
Launch vehicle
Unknown
Launch site
Plesetsk Missile And Space Complex (PKMTR)
Object type
Payload
Rocket body
Debris
Shape & HBR
Unknown shape, 0.1 m
Radar Cross Section
Small (<0.1 m²)

Expand to show TLE details & history
Last TLE update: 1 week ago

TLE from 1 week ago
0 COSMOS 2251 DEB
1 37132U 93036BHE 26228.93190949  .00003107  00000-0  39879-3 0  9991
2 37132  74.0003 106.3131 0040895 201.6877 158.2570 14.81112459660729
Epoch: 2026-08-16T22:21Z
TLE epoch observation values (Epoch: 2026-08-16T22:21:56.979Z)
Latitude
-0.00006°
Longitude
165.50432°
Altitude
655.104 km
Speed
7.516 km/s
True Right ascension
07h 05m 15s
True Declination
0° 00' 00"
Sunlit
Object was in daylight at epoch
Visualization orbit readout
Latitude
Unknown
Longitude
Unknown
Altitude
Unknown
Speed
Unknown
Apparent Right ascension
Unknown
Apparent Declination
Unknown
Sunlit
N/A
Visualization observer readout
Local Sidereal Time
12:11:37
Azimuth
Unknown
Elevation
Unknown
Doppler factor
Unknown
Orbital elements
Apogee altitude
652.025 km
Perigee altitude
594.759 km
Semi-major axis
7,001.529 km
Eccentricity
0.00409
Inclination
74.0003°
RAAN
106.3131°
Arg. of periapsis
201.6877°
True anomaly
158.42978°
Mean anomaly
158.257°
Eccentric anomaly
158.34347°
Mean motion
3.70471 °/min
Orbital period
97.17 mins
BSTAR
0.00039879
Loading maneuver chart data...
Computing Atmospheric mass density...

Documentation

Showing up to 5 results
|